SB KEPS @ AMSAT $ORB12096.N 2Line Orbital Elements 12096.AMSAT
HR AMSAT ORBITAL ELEMENTS FOR AMATEUR SATELLITES IN NASA FORMAT FROM WA5QGD FORT WORTH,TX April 5, 2012 Send SUBSCRIBE KEPS/UNSUBSCRIBE KEPS to majordomo@amsat.org only BID: ORB12096.N
DECODE 2-LINE ELSETS WITH THE FOLLOWING KEY: 1 AAAAAU 00 0 0 BBBBB.BBBBBBBB .CCCCCCCC 00000-0 00000-0 0 DDDZ 2 AAAAA EEE.EEEE FFF.FFFF GGGGGGG HHH.HHHH III.IIII JJ.JJJJJJJJKKKKKZ KEY: A-CATALOGNUM B-EPOCHTIME C-DECAY D-ELSETNUM E-INCLINATION F-RAAN G-ECCENTRICITY H-ARGPERIGEE I-MNANOM J-MNMOTION K-ORBITNUM Z-CHECKSUM
TO ALL RADIO AMATEURS BT
AO-07 1 07530U 74089B 12095.48483840 -.00000027 00000-0 10000-3 0 03504 2 07530 101.4019 095.5458 0012116 066.9442 293.2909 12.53588472710817 FO-29 1 24278U 96046B 12095.90022129 .00000037 00000-0 74876-4 0 08153 2 24278 098.5787 206.1610 0350015 218.9441 138.6007 13.52979774772047 SO-33 1 25509U 98061B 12095.90162064 .00000368 00000-0 59153-4 0 02021 2 25509 031.4360 028.3968 0353227 281.9615 074.1617 14.28689742702163 RS-22 1 27939U 03042A 12096.54935233 .00000629 00000-0 12852-3 0 2374 2 27939 097.8185 301.0717 0014232 132.4665 227.7755 14.63957139455252 VO-52 1 28650U 05017B 12095.84181658 .00000915 00000-0 11890-3 0 675 2 28650 097.6048 130.3666 0025377 282.9687 076.8728 14.82791293374107 HO-68 1 36122U 09072B 12096.62834490 -.00000044 00000-0 00000 0 0 3505 2 36122 100.3693 157.4170 0007129 275.3820 084.6477 13.16294299110845 UO-11 1 14781U 84021B 12095.92125242 .00000494 00000-0 71605-4 0 08337 2 14781 097.9628 156.0596 0007881 272.5396 087.4913 14.80368287509096 AO-16 1 20439U 90005D 12095.86341622 .00000191 00000-0 86828-4 0 04432 2 20439 098.4231 041.3148 0011528 020.6015 339.5628 14.32033949159503 LO-19 1 20442U 90005G 12096.87561532 .00000146 00000-0 69932-4 0 3618 2 20442 098.3892 045.5592 0012240 010.0729 350.0691 14.32254180159831 AO-27 1 22825U 93061C 12096.86936379 .00000104 00000-0 57570-4 0 711 2 22825 098.5688 040.8319 0009205 128.9635 231.2364 14.29443750966146 IO-26 1 22826U 93061D 12095.90427898 .00000131 00000-0 67843-4 0 08326 2 22826 098.5628 040.2725 0009504 124.9263 235.2808 14.29715664966133 GO-32 1 25397U 98043D 12095.65213738 -.00000009 00000-0 13934-4 0 7422 2 25397 098.3567 078.0051 0002078 121.0945 239.0456 14.23265405713569 NO-44 1 26931U 01043C 12095.87220840 .00000312 00000-0 15324-3 0 00093 2 26931 067.0537 309.2960 0007064 275.2431 084.7867 14.29779045548769 SO-50 1 27607U 02058C 12095.61002232 .00000750 00000-0 13350-3 0 07300 2 27607 064.5585 158.7070 0084948 263.0751 096.0676 14.72291947499138 CO-55 1 27844U 03031E 12095.55220773 .00000236 00000-0 12910-3 0 03441 2 27844 098.7054 105.0002 0010696 075.2867 284.9504 14.20987606454430 CO-57 1 27848U 03031J 12095.68393824 .00000231 00000-0 12710-3 0 2955 2 27848 098.7136 104.4311 0010703 080.6503 279.5893 14.20744181454392 AO-51 1 28375U 04025K 12095.95983011 .00000216 00000-0 77863-4 0 02367 2 28375 098.1392 064.6739 0082794 263.2956 095.8776 14.40922112408221 CP3 1 31129U 07012N 12095.46832776 .00000781 00000-0 18765-3 0 01343 2 31129 097.8842 107.5817 0101247 353.3045 006.6850 14.52970661263279 CO-65 1 32785U 08021C 12095.82980153 .00001487 00000-0 19010-3 0 02749 2 32785 097.8077 158.5998 0013918 304.9887 054.9972 14.82804553212899 PRISM 1 33493U 09002B 12096.49319727 .00003332 00000-0 41079-3 0 5781 2 33493 098.1592 235.3898 0019323 169.6484 190.5141 14.83487915172979 SOHLA-1 1 33496U 09002E 12095.86060180 .00000421 00000-0 78545-4 0 07079 2 33496 098.0965 208.1165 0005597 275.9766 084.0795 14.69910215171476 SO-67 1 35870U 09049F 12096.61655601 .00004804 00000-0 20596-3 0 8386 2 35870 097.2409 134.9172 0003769 076.8307 080.9221 15.23198506141568 TISAT-1 1 36799U 10035E 12096.48129916 .00001852 00000-0 24166-3 0 8550 2 36799 098.0659 172.2856 0016022 051.9718 308.2942 14.81695432 93728 STUDSAT 1 36801U 10035G 12095.91195747 .00005016 00000-0 61419-3 0 04178 2 36801 098.0728 172.1287 0013718 040.9219 319.3023 14.83581477093659 FO-69 1 37227U 0 12096.30024898 .00000482 00000-0 76165-4 0 01448 2 37227 071.9681 112.7872 0015225 097.7284 262.5607 14.76988299025339 FO-70 1 37380U 0 12096.42909929 .00000500 00000-0 79165-4 0 01510 2 37380 071.9718 112.9699 0015702 094.0230 266.2840 14.76743898025244 ALMASAT-1 1 38078U 12006B 12096.44814536 .00026337 00000-0 74305-3 0 958 2 38078 069.4937 121.7382 0770265 339.5148 017.6530 14.06415247 7317 XATCOBEO 1 38082U 12006F 12096.44725445 .00058593 00000-0 14944-2 0 1427 2 38082 069.4890 121.3398 0764015 339.2779 017.8792 14.09720791 7314 NOAA-10 1 16969U 86073A 12095.56571541 .00000018 00000-0 25111-4 0 08741 2 16969 098.5883 125.9055 0013124 090.2420 270.0275 14.27538475329361 NOAA-11 1 19531U 88089A 12095.81569381 -.00000166 00000-0 -63540-4 0 08750 2 19531 098.7324 182.5137 0011982 074.1258 286.1233 14.14959003214131 NOAA-12 1 21263U 91032A 12095.97871731 .00000030 00000-0 31591-4 0 03810 2 21263 098.7338 117.9703 0014716 054.9869 305.2689 14.25486122086127 MET-3/5 1 21655U 91056A 12096.59953500 .00000051 00000-0 10000-3 0 3763 2 21655 082.5596 203.4564 0014308 140.3259 219.8889 13.17034610992348 MET-2/21 1 22782U 93055A 12095.47074904 .00000120 00000-0 95190-4 0 03822 2 22782 082.5442 091.0021 0022649 003.6259 356.5068 13.83678499938976 OKEAN-4 1 23317U 94066A 12095.92778717 .00001232 00000-0 14595-3 0 08967 2 23317 082.5367 099.6869 0019877 231.0753 128.8692 14.83665798943941 NOAA-14 1 23455U 94089A 12095.94565361 .00000036 00000-0 42036-4 0 08576 2 23455 098.8284 180.3605 0009371 162.9084 197.2401 14.13886906890448 NOAA-15 1 25338U 98030A 12095.68521178 .00000169 00000-0 91113-4 0 02130 2 25338 098.6859 083.3048 0010118 326.9067 033.1458 14.25048699722382 RESURS 1 25394U 98043A 12095.98956506 .00000067 00000-0 46526-4 0 00690 2 25394 098.3172 088.0967 0002353 087.4682 272.6764 14.24280674713981 FENGYUN1 1 25730U 99025A 12095.95553884 .00001153 00000-0 68540-3 0 05752 2 25730 098.8430 056.2345 0017390 214.7721 145.2312 14.09364883664291 OKEAN-0 1 25860U 99039A 12095.95518921 .00000563 00000-0 92830-4 0 06108 2 25860 097.9272 060.1329 0001739 092.6674 267.4733 14.74139154683787 NOAA-16 1 26536U 00055A 12095.80541095 .00000406 00000-0 24353-3 0 06976 2 26536 099.1030 136.7669 0009792 290.8196 069.1921 14.12721699594677 NOAA-17 1 27453U 02032A 12095.82866294 .00000249 00000-0 12512-3 0 06592 2 27453 098.3439 126.5487 0012008 016.8908 343.2661 14.24412180508314 NOAA-18 1 28654U 05018A 12095.91905419 .00000312 00000-0 19659-3 0 01355 2 28654 099.0385 053.4256 0014474 004.5081 355.6207 14.11629299354222 NOAA-19 1 33591U 09005A 12095.83957690 -.00000015 00000-0 15864-4 0 03268 2 33591 098.8588 036.5570 0013311 226.9910 133.0158 14.11314611162668 HUBBLE 1 20580U 90037B 12095.78878554 .00002147 00000-0 14605-3 0 9750 2 20580 028.4704 263.8165 0003588 002.1668 357.8931 15.02341240 3685 ISS 1 25544U 98067A 12096.99652534 .00016430 00000-0 22021-3 0 3135 2 25544 051.6394 123.7868 0008274 250.1209 204.3274 15.58087733766766 CO-58 1 28895U 05043F 12095.64450110 .00000625 00000-0 13767-3 0 01411 2 28895 097.9242 325.1113 0018233 026.0735 334.1347 14.60546932342928 FALCON 1 30776U 07006E 12095.93021944 .00004395 00000-0 29018-3 0 03331 2 30776 035.4333 004.1098 0001241 064.5562 295.5282 15.06998714279195 MAST 1 31126U 07012K 12095.93940368 .00000729 00000-0 17324-3 0 04311 2 31126 097.8770 111.3197 0093819 339.7241 020.0253 14.54091903263622 CAPE1 1 31130U 07012P 12095.50021847 .00000994 00000-0 23649-3 0 04367 2 31130 097.8855 107.3360 0101256 353.9049 006.0934 14.52846646263076 COMPASS 1 32787U 08021E 12095.83689649 .00002142 00000-0 26510-3 0 02694 2 32787 097.8076 158.7849 0014485 303.1137 056.8675 14.83704717212934 AAUSAT2 1 32788U 08021F 12095.61959079 .00002846 00000-0 34769-3 0 02605 2 32788 097.8088 158.9160 0013403 304.0015 055.9979 14.84003364212927 DO-64 1 32789U 08021G 12095.73591654 .00004052 00000-0 47724-3 0 02752 2 32789 097.8191 160.7845 0013576 300.4545 059.5429 14.85281878212977 CO-66 1 32791U 08021J 12095.66400094 .00001722 00000-0 21705-3 0 02633 2 32791 097.8068 158.4124 0014856 304.4004 055.5883 14.83173418212847 RS-30 1 32953U 08025A 12096.60906319 .00000010 00000-0 00000 0 0 6738 2 32953 082.5060 340.2793 0019547 103.9585 256.3675 12.43021994175541 TACSAT-3 1 35001U 09028A 12096.54996421 .00287933 36542-4 90917-3 0 9328 2 35001 040.4450 157.3964 0013301 092.3335 267.9020 15.90294601162952 PHARMSAT 1 35002U 09028B 12095.56602056 .00081135 00000-0 62228-3 0 08514 2 35002 040.4608 173.8729 0002306 327.0716 032.9965 15.71033690162691 METEOR-M 1 35865U 09049A 12096.59763274 -.00000011 00000-0 14555-4 0 2967 2 35865 098.6623 152.2574 0001624 268.2783 091.8219 14.21858726132288 RS-38 1 35869U 09049E 12096.55897199 .00000028 00000-0 32463-4 0 3068 2 35869 098.6583 152.2267 0003739 264.6072 095.4683 14.22061882132292 JUGNU 1 37839U 11058B 12095.32477040 .00000620 00000-0 19019-3 0 01239 2 37839 019.9600 085.6726 0019495 126.3596 233.8582 14.12039460024794 SRMSAT 1 37841U 11058D 12095.34962776 .00000264 00000-0 00000-0 0 01230 2 37841 019.9727 088.9725 0011749 101.1213 259.0705 14.10126571024765 RAX-2 1 37853U 11061D 12095.95485620 .00002939 00000-0 24313-3 0 01554 2 37853 101.7182 102.8330 0249538 199.5452 159.6048 14.79301897023570 AUBIESAT 1 37854U 11061E 12095.92728204 .00003553 00000-0 28654-3 0 01544 2 37854 101.7182 102.9488 0251263 198.9272 160.2466 14.79633888023555 HRBE 1 37855U 11061F 12095.93455031 .00003427 00000-0 27718-3 0 01552 2 37855 101.7197 102.9349 0251687 198.9776 160.1929 14.79520111023554 RS-39 1 38051U 11062C 12096.52760373 .00007804 00000-0 34004-3 0 2185 2 38051 051.6381 145.7740 0010877 133.7813 007.5461 15.23061651 10891 E-STAR 1 38079U 12006C 12096.16205389 .00049964 00000-0 12544-2 0 1271 2 38079 069.4831 121.9929 0767155 339.7252 017.4656 14.09391724 7270 GOLIAT 1 38085U 12006J 12096.46343182 .00048927 00000-0 12538-2 0 1243 2 38085 069.4860 121.3796 0768018 339.3195 017.8312 14.08792186 7310 /EX